History for Ft Lauderdale, FL

Monday, November 12, 2012 — View Current Conditions

Jump to Data:

Date:
Airport Code:
Recently Viewed Airport Codes: KFLL
Daily Summary
  Actual Average Record
Temperature
Mean Temperature 76°F 76°F  
Max Temperature 82°F 82°F 87°F (1972)
Min Temperature 70°F 70°F 49°F (1932)
Degree Days
Heating Degree Days 0 0  
Month to date heating degree days 2 0  
Since 1 July heating degree days 2 0  
Cooling Degree Days 11 11  
Month to date cooling degree days 84 143  
Year to date cooling degree days 4241 4337  
Growing Degree Days 26 (Base 50)    
Moisture
Dew Point 66°F    
Average Humidity 80    
Maximum Humidity 97    
Minimum Humidity 62    
Precipitation
Precipitation 0.15 in 0.11 in 5.10 in (1954)
Month to date precipitation 0.15 1.61  
Year to date precipitation 59.44 58.09  
Snow
Snow 0.00 in in in ()
Month to date snowfall 0.0  
Since 1 July snowfall 0.0  
Since 1 September snowfall 0.0  
Snow Depth 0.00 in    
Sea Level Pressure
Sea Level Pressure 30.15 in    
Wind
Wind Speed 15 mph (East)    
Max Wind Speed 29 mph    
Max Gust Speed 36 mph    
Visibility 8 miles    
Events Rain    
T = Trace of Precipitation, MM = Missing Value Source: NWS Daily Summary

Show full METARS

(help) - Comma Delimited File

Hourly Observations

Time(EST) Temperature Dew Point Humidity Sea Level Pressure Visibility Wind Direction Wind Speed Gust Speed Precipitation Events Conditions
12:53 AM 75.9°F 63.0°F 64% 30.18 in 10.0 miles ESE 16.1 mph 24.2 mph N/A   Mostly Cloudy
1:53 AM 75.9°F 64.9°F 69% 30.16 in 10.0 miles East 16.1 mph - N/A   Mostly Cloudy
2:53 AM 75.9°F 64.0°F 67% 30.14 in 10.0 miles East 18.4 mph 24.2 mph N/A   Mostly Cloudy
3:53 AM 75.0°F 66.0°F 73% 30.14 in 10.0 miles East 16.1 mph - 0.00 in   Mostly Cloudy
4:53 AM 75.0°F 66.0°F 73% 30.13 in 10.0 miles East 17.3 mph 23.0 mph N/A   Scattered Clouds
5:26 AM 73.4°F 66.2°F 78% 30.14 in 2.0 miles ESE 21.9 mph 28.8 mph 0.04 in Rain Rain
5:29 AM 71.6°F 66.2°F 83% 30.14 in 5.0 miles ESE 16.1 mph 28.8 mph 0.04 in Rain Light Rain
5:53 AM 70.0°F 66.0°F 87% 30.16 in 4.0 miles East 17.3 mph 27.6 mph 0.05 in Rain Rain
6:53 AM 73.0°F 68.0°F 84% 30.16 in 7.0 miles SE 18.4 mph 25.3 mph 0.00 in Rain Light Rain
6:58 AM 73.4°F 68.0°F 83% 30.16 in 1.8 miles ESE 13.8 mph 26.5 mph 0.06 in Rain Heavy Rain
7:05 AM 73.4°F 68.0°F 83% 30.16 in 3.0 miles ESE 16.1 mph 20.7 mph 0.07 in Rain Light Rain
7:53 AM 70.0°F 68.0°F 93% 30.19 in 5.0 miles East 15.0 mph 25.3 mph 0.10 in Rain Light Rain
8:53 AM 72.0°F 69.1°F 91% 30.19 in 9.0 miles East 23.0 mph 29.9 mph 0.00 in   Overcast
9:53 AM 75.0°F 66.9°F 76% 30.20 in 10.0 miles East 13.8 mph - 0.00 in   Overcast
10:53 AM 78.1°F 66.9°F 68% 30.19 in 10.0 miles East 11.5 mph 21.9 mph N/A   Mostly Cloudy
11:53 AM 79.0°F 64.9°F 62% 30.17 in 10.0 miles East 15.0 mph - N/A   Mostly Cloudy
12:53 PM 81.0°F 66.0°F 60% 30.15 in 10.0 miles East 13.8 mph - N/A   Partly Cloudy
1:53 PM 80.1°F 66.0°F 62% 30.14 in 10.0 miles East 15.0 mph - N/A   Partly Cloudy
2:53 PM 81.0°F 66.0°F 60% 30.12 in 10.0 miles East 16.1 mph - N/A   Scattered Clouds
3:53 PM 79.0°F 66.0°F 64% 30.12 in 10.0 miles East 16.1 mph 24.2 mph 0.00 in   Partly Cloudy
4:53 PM 78.1°F 66.9°F 68% 30.12 in 10.0 miles East 15.0 mph 20.7 mph N/A   Partly Cloudy
5:53 PM 77.0°F 64.9°F 66% 30.12 in 10.0 miles East 15.0 mph - N/A   Scattered Clouds
6:53 PM 77.0°F 66.0°F 69% 30.13 in 10.0 miles East 11.5 mph - N/A   Scattered Clouds
7:53 PM 77.0°F 64.9°F 66% 30.14 in 10.0 miles East 12.7 mph - N/A   Partly Cloudy
8:53 PM 75.9°F 68.0°F 76% 30.14 in 7.0 miles NE 15.0 mph 25.3 mph 0.00 in Rain Light Rain
9:53 PM 77.0°F 66.0°F 69% 30.14 in 10.0 miles East 11.5 mph - 0.00 in   Scattered Clouds
10:10 PM 75.2°F 66.2°F 73% 30.14 in 10.0 miles East 15.0 mph - N/A   Mostly Cloudy
10:44 PM 77.0°F 68.0°F 74% 30.13 in 10.0 miles ENE 11.5 mph 19.6 mph N/A   Mostly Cloudy
10:53 PM 75.9°F 66.9°F 74% 30.14 in 10.0 miles East 12.7 mph 20.7 mph N/A   Mostly Cloudy
11:53 PM 75.9°F 64.9°F 69% 30.11 in 10.0 miles East 15.0 mph 21.9 mph N/A   Scattered Clouds